Del Rio, TX

8:06 AM CST on January 16, 2018 (GMT -0600)
Del Rio International

Weather History for KDRT - October, 2012

Change the Weather History Date:

Monday, October 8, 2012

  Actual Average Record
Temperature  
Mean Temperature 62 °F 74 °F  
Max Temperature 70 °F 85 °F 97 °F (1979)
Min Temperature 53 °F 63 °F 42 °F (2000)
Degree Days  
Heating Degree Days 3 0  
Month to date heating degree days 11 0  
Since 1 July heating degree days 11 1  
Cooling Degree Days 0 9  
Month to date cooling degree days 78 82  
Year to date cooling degree days 3750 3177  
Growing Degree Days 12 (Base 50)    
Moisture  
Dew Point 48 °F    
Average Humidity 65    
Maximum Humidity 77    
Minimum Humidity 53    
Precipitation  
Precipitation 0.00 in 0.08 in 2.53 in (2002)
Month to date precipitation 0.02 0.70  
Year to date precipitation 13.74 16.41  
Sea Level Pressure  
Sea Level Pressure 30.14 in    
Wind  
Wind Speed 6 mph (ESE)    
Max Wind Speed 15 mph    
Max Gust Speed 20 mph    
Visibility 10 miles    
Events      
T = Trace of Precipitation, MM = Missing Value Source: NWS Daily Summary

Daily Weather History Graph

Daily Weather History Graph

Search for Another Location

Airport or City:

Trip Planner

Search our weather history database for the weather conditions in past years. The results will help you decide how hot, cold, wet, or windy it might be!

Date:

Astronomy

Oct. 08, 2012 Rise Set
Actual Time 7:41 AM CDT 7:20 PM CDT
Civil Twilight 7:17 AM CDT 7:44 PM CDT
Nautical Twilight 6:49 AM CDT 8:11 PM CDT
Astronomical Twilight 6:22 AM CDT 8:39 PM CDT
Moon 12:52 AM CDT (10/8) 2:43 PM CDT (10/8)
Length of Visible Light 12h 26m
Length of Day
11h 39m
Last Quarter, 46% of the Moon is Illuminated
Oct 8
Last Quarter
Oct 15
New
Oct 21
First Quarter
Oct 29
Full
Nov 6
Last Quarter

Hourly Weather History & Observations

Time (CDT) Temp. Dew Point Humidity Pressure Visibility Wind Dir Wind Speed Gust Speed Precip Events Conditions
12:53 AM 54.0 °F 46.0 °F 75% 30.19 in 10.0 mi NE 6.9 mph - N/A   Overcast
1:53 AM 54.0 °F 46.0 °F 75% 30.20 in 10.0 mi NNE 6.9 mph - N/A   Overcast
2:53 AM 54.0 °F 46.0 °F 75% 30.19 in 10.0 mi NNE 5.8 mph - N/A   Overcast
3:53 AM 54.0 °F 46.0 °F 75% 30.19 in 10.0 mi North 3.5 mph - N/A   Overcast
4:53 AM 54.0 °F 46.0 °F 75% 30.19 in 10.0 mi NE 3.5 mph - N/A   Overcast
5:53 AM 54.0 °F 46.0 °F 75% 30.19 in 10.0 mi NE 3.5 mph - N/A   Overcast
6:20 AM 53.6 °F 46.4 °F 77% 30.21 in 10.0 mi Calm Calm - N/A   Overcast
6:53 AM 54.0 °F 46.0 °F 75% 30.19 in 10.0 mi Calm Calm - N/A   Overcast
7:29 AM 53.6 °F 46.4 °F 77% 30.22 in 10.0 mi Calm Calm - N/A   Overcast
7:53 AM 54.0 °F 46.0 °F 75% 30.20 in 10.0 mi Calm Calm - N/A   Overcast
8:53 AM 55.0 °F 46.0 °F 72% 30.22 in 10.0 mi Calm Calm - N/A   Overcast
9:53 AM 55.9 °F 46.0 °F 69% 30.22 in 10.0 mi Calm Calm - N/A   Overcast
10:53 AM 57.9 °F 46.9 °F 67% 30.22 in 10.0 mi Calm Calm - N/A   Overcast
11:53 AM 60.1 °F 46.9 °F 62% 30.20 in 10.0 mi Calm Calm - N/A   Overcast
12:53 PM 63.0 °F 48.0 °F 58% 30.16 in 10.0 mi South 4.6 mph - N/A   Overcast
1:53 PM 64.9 °F 48.9 °F 56% 30.12 in 10.0 mi SE 5.8 mph - N/A   Overcast
2:53 PM 66.0 °F 50.0 °F 56% 30.08 in 10.0 mi SSW 5.8 mph - N/A   Partly Cloudy
3:53 PM 69.1 °F 51.1 °F 53% 30.06 in 10.0 mi SSE 8.1 mph 16.1 mph N/A   Clear
4:53 PM 70.0 °F 51.1 °F 51% 30.04 in 10.0 mi SE 11.5 mph 18.4 mph N/A   Clear
5:53 PM 69.1 °F 52.0 °F 54% 30.03 in 10.0 mi SE 13.8 mph - N/A   Clear
6:53 PM 68.0 °F 52.0 °F 56% 30.02 in 10.0 mi SE 13.8 mph - N/A   Clear
7:53 PM 66.0 °F 52.0 °F 60% 30.02 in 10.0 mi ESE 11.5 mph - N/A   Clear
8:53 PM 64.4 °F 51.8 °F 64% 30.05 in 10.0 mi ESE 10.4 mph - N/A   Clear
9:53 PM 63.0 °F 52.0 °F 67% 30.04 in 10.0 mi ESE 11.5 mph - N/A   Clear
10:53 PM 62.1 °F 52.0 °F 70% 30.04 in 10.0 mi ESE 10.4 mph - N/A   Clear
11:53 PM 61.0 °F 51.1 °F 70% 30.03 in 10.0 mi ESE 10.4 mph - N/A   Clear